timestamp,wind_dir_avg,wind_spd_avg,wind_spd_max_dir,wind_spd_gust,battery_voltage,lat,long
2022-07-13 00:04:00+00:00,216.0,6.48,213.0,7.29,12.97,47.59359,-54.27349
2022-07-13 00:14:01+00:00,211.0,6.57,217.0,7.17,12.57,47.59359,-54.27349
2022-07-13 00:24:01+00:00,212.0,5.59,215.0,6.11,12.57,47.59359,-54.27349
2022-07-13 00:34:01+00:00,208.0,5.85,208.0,6.3,12.57,47.59359,-54.27349
2022-07-13 00:44:01+00:00,204.0,6.36,200.0,7.05,12.57,47.59359,-54.27349
2022-07-13 00:54:01+00:00,202.0,6.5,199.0,7.4,12.57,47.59359,-54.27349
2022-07-13 01:04:01+00:00,203.0,6.68,210.0,7.7,12.57,47.59359,-54.27349
2022-07-13 01:14:00+00:00,204.0,5.26,202.0,6.37,12.49,47.59359,-54.27349
2022-07-13 01:24:00+00:00,215.0,4.99,215.0,5.58,12.49,47.59359,-54.27349
2022-07-13 01:34:00+00:00,211.0,4.47,210.0,4.89,12.49,47.59359,-54.27349
2022-07-13 01:44:00+00:00,199.0,6.1,198.0,6.65,12.49,47.59359,-54.27349
2022-07-13 01:54:00+00:00,210.0,4.5,205.0,5.42,12.49,47.59359,-54.27349
2022-07-13 02:04:00+00:00,210.0,4.02,208.0,4.48,12.49,47.59359,-54.27349
2022-07-13 02:14:01+00:00,211.0,5.43,213.0,6.49,12.49,47.59359,-54.27349
2022-07-13 02:24:01+00:00,205.0,6.52,205.0,7.03,12.49,47.59359,-54.27349
2022-07-13 02:34:01+00:00,199.0,6.43,204.0,7.08,12.49,47.59359,-54.27349
2022-07-13 02:44:01+00:00,187.0,8.23,189.0,8.95,12.49,47.59359,-54.27349
2022-07-13 02:54:01+00:00,195.0,8.19,191.0,9.0,12.49,47.59359,-54.27349
2022-07-13 03:04:01+00:00,200.0,7.98,200.0,8.77,12.49,47.59359,-54.27349
2022-07-13 03:14:01+00:00,199.0,7.72,194.0,8.91,12.41,47.59359,-54.27349
2022-07-13 03:24:01+00:00,206.0,6.44,204.0,7.18,12.41,47.59359,-54.27349
2022-07-13 03:34:01+00:00,205.0,7.42,207.0,8.95,12.41,47.59359,-54.27349
2022-07-13 03:44:01+00:00,190.0,8.49,191.0,9.12,12.41,47.59359,-54.27349
2022-07-13 03:54:01+00:00,195.0,8.06,197.0,8.95,12.41,47.59359,-54.27349
2022-07-13 04:04:01+00:00,193.0,6.65,194.0,7.26,12.41,47.59359,-54.27349
2022-07-13 04:14:00+00:00,192.0,6.73,191.0,7.67,12.41,47.59359,-54.27349
2022-07-13 04:24:00+00:00,199.0,6.62,198.0,7.8,12.41,47.59359,-54.27349
2022-07-13 04:34:00+00:00,200.0,6.64,198.0,7.92,12.41,47.59359,-54.27349
2022-07-13 04:44:00+00:00,206.0,6.73,212.0,7.44,12.41,47.59359,-54.27349
2022-07-13 04:54:00+00:00,213.0,6.06,210.0,7.23,12.41,47.59359,-54.27349
2022-07-13 05:04:00+00:00,211.0,6.63,217.0,7.5,12.41,47.59359,-54.27349
2022-07-13 05:14:01+00:00,217.0,7.62,219.0,9.5,12.33,47.59359,-54.27349
2022-07-13 05:24:01+00:00,206.0,6.33,206.0,7.03,12.33,47.59359,-54.27349
2022-07-13 05:34:01+00:00,211.0,5.92,210.0,6.46,12.33,47.59359,-54.27349
2022-07-13 05:44:01+00:00,213.0,5.79,214.0,6.53,12.33,47.59359,-54.27349
2022-07-13 05:54:01+00:00,207.0,5.68,208.0,6.73,12.33,47.59359,-54.27349
2022-07-13 06:04:01+00:00,209.0,5.44,209.0,6.09,12.33,47.59359,-54.27349
2022-07-13 06:14:00+00:00,209.0,5.74,215.0,6.57,12.33,47.59359,-54.27349
2022-07-13 06:24:00+00:00,216.0,6.11,216.0,7.2,12.33,47.59359,-54.27349
2022-07-13 06:34:00+00:00,218.0,5.98,218.0,7.02,12.33,47.59359,-54.27349
2022-07-13 06:44:00+00:00,212.0,5.62,209.0,6.41,12.33,47.59359,-54.27349
2022-07-13 06:54:00+00:00,213.0,5.4,214.0,6.48,12.33,47.59359,-54.27349
2022-07-13 07:04:00+00:00,200.0,5.04,197.0,5.86,12.33,47.59359,-54.27349
2022-07-13 07:14:00+00:00,200.0,5.01,205.0,5.55,12.33,47.59359,-54.27349
2022-07-13 07:24:00+00:00,200.0,6.58,205.0,7.28,12.33,47.59359,-54.27349
2022-07-13 07:34:00+00:00,203.0,7.61,201.0,8.67,12.33,47.59359,-54.27349
2022-07-13 07:44:00+00:00,206.0,7.52,209.0,8.33,12.33,47.59359,-54.27349
2022-07-13 07:54:00+00:00,203.0,7.42,206.0,8.29,12.33,47.59359,-54.27349
2022-07-13 08:04:00+00:00,206.0,6.39,209.0,7.32,12.33,47.59359,-54.27349
2022-07-13 08:14:00+00:00,212.0,6.46,213.0,7.04,12.33,47.59359,-54.27349
2022-07-13 08:24:00+00:00,212.0,6.88,221.0,7.58,12.33,47.59359,-54.27349
2022-07-13 08:34:00+00:00,211.0,7.93,226.0,9.81,12.33,47.59359,-54.27349
2022-07-13 08:44:00+00:00,206.0,7.8,206.0,8.93,12.33,47.59359,-54.27349
2022-07-13 08:54:00+00:00,200.0,7.81,203.0,8.83,12.33,47.59359,-54.27349
2022-07-13 09:04:00+00:00,203.0,8.34,203.0,9.48,12.33,47.59359,-54.27349
2022-07-13 09:14:00+00:00,205.0,7.99,208.0,9.33,12.25,47.59359,-54.27349
2022-07-13 09:24:00+00:00,206.0,7.14,206.0,7.68,12.25,47.59359,-54.27349
2022-07-13 09:34:00+00:00,202.0,7.38,200.0,8.84,12.25,47.59359,-54.27349
2022-07-13 09:44:00+00:00,205.0,8.18,211.0,9.39,12.25,47.59359,-54.27349
2022-07-13 09:54:00+00:00,210.0,9.29,210.0,10.83,12.25,47.59359,-54.27349
2022-07-13 10:04:00+00:00,200.0,8.49,197.0,10.0,12.25,47.59359,-54.27349
2022-07-13 10:14:01+00:00,200.0,8.05,198.0,8.89,12.81,47.59359,-54.27349
2022-07-13 10:24:01+00:00,201.0,6.86,197.0,7.53,12.81,47.59359,-54.27349
2022-07-13 10:34:01+00:00,206.0,6.25,208.0,7.09,12.81,47.59359,-54.27349
2022-07-13 10:44:01+00:00,211.0,7.04,213.0,7.85,12.81,47.59359,-54.27349
2022-07-13 10:54:01+00:00,217.0,6.95,216.0,7.78,12.81,47.59359,-54.27349
2022-07-13 11:04:01+00:00,220.0,7.39,222.0,8.41,12.81,47.59359,-54.27349
2022-07-13 11:14:01+00:00,218.0,6.92,226.0,8.33,13.44,47.59359,-54.27349
2022-07-13 11:24:01+00:00,221.0,5.61,215.0,6.65,13.44,47.59359,-54.27349
2022-07-13 11:34:01+00:00,227.0,6.39,230.0,7.51,13.44,47.59359,-54.27349
2022-07-13 11:44:01+00:00,222.0,6.03,216.0,6.99,13.44,47.59359,-54.27349
2022-07-13 11:54:01+00:00,239.0,6.88,244.0,8.66,13.44,47.59359,-54.27349
2022-07-13 12:04:01+00:00,229.0,7.25,230.0,8.73,13.44,47.59359,-54.27349
2022-07-13 12:14:00+00:00,226.0,6.84,226.0,7.76,13.6,47.59359,-54.27349
2022-07-13 12:24:00+00:00,221.0,6.76,214.0,8.29,13.6,47.59359,-54.27349
2022-07-13 12:34:00+00:00,214.0,8.01,216.0,9.38,13.6,47.59359,-54.27349
2022-07-13 12:44:00+00:00,212.0,7.67,218.0,8.46,13.6,47.59359,-54.27349
2022-07-13 12:54:00+00:00,217.0,7.97,216.0,8.99,13.6,47.59359,-54.27349
2022-07-13 13:04:00+00:00,216.0,10.3,221.0,11.51,13.6,47.59359,-54.27349
2022-07-13 13:14:01+00:00,209.0,8.46,213.0,10.8,14.08,47.59359,-54.27349
2022-07-13 13:24:01+00:00,210.0,9.83,220.0,12.3,14.08,47.59359,-54.27349
2022-07-13 13:34:01+00:00,208.0,9.11,222.0,10.92,14.08,47.59359,-54.27349
2022-07-13 13:44:01+00:00,208.0,9.3,213.0,10.36,14.08,47.59359,-54.27349
2022-07-13 13:54:01+00:00,210.0,8.3,211.0,9.26,14.08,47.59359,-54.27349
2022-07-13 14:04:01+00:00,202.0,7.31,198.0,7.91,14.08,47.59359,-54.27349
2022-07-13 14:14:00+00:00,202.0,6.52,202.0,7.09,13.68,47.59359,-54.27349
2022-07-13 14:24:00+00:00,208.0,7.14,206.0,8.65,13.68,47.59359,-54.27349
2022-07-13 14:34:00+00:00,204.0,8.58,205.0,9.46,13.68,47.59359,-54.27349
2022-07-13 14:44:00+00:00,202.0,7.09,204.0,8.06,13.68,47.59359,-54.27349
2022-07-13 14:54:00+00:00,213.0,7.76,214.0,9.04,13.68,47.59359,-54.27349
2022-07-13 15:04:00+00:00,216.0,9.02,214.0,10.89,13.68,47.59359,-54.27349
2022-07-13 15:14:00+00:00,212.0,8.72,211.0,10.68,13.68,47.59359,-54.27349
2022-07-13 15:24:00+00:00,217.0,10.01,223.0,11.71,13.68,47.59359,-54.27349
2022-07-13 15:34:00+00:00,216.0,10.31,216.0,12.53,13.68,47.59359,-54.27349
2022-07-13 15:44:00+00:00,218.0,10.19,219.0,11.55,13.68,47.59359,-54.27349
2022-07-13 15:54:00+00:00,218.0,10.01,223.0,11.1,13.68,47.59359,-54.27349
2022-07-13 16:04:00+00:00,217.0,9.39,218.0,10.82,13.68,47.59359,-54.27349
2022-07-13 16:14:00+00:00,214.0,9.06,224.0,11.13,13.68,47.59359,-54.27349
2022-07-13 16:24:00+00:00,213.0,8.28,213.0,9.78,13.68,47.59359,-54.27349
2022-07-13 16:34:00+00:00,203.0,9.53,204.0,11.11,13.68,47.59359,-54.27349
2022-07-13 16:44:00+00:00,204.0,9.87,205.0,11.28,13.68,47.59359,-54.27349
2022-07-13 16:54:00+00:00,207.0,9.97,213.0,10.99,13.68,47.59359,-54.27349
2022-07-13 17:04:00+00:00,210.0,9.77,214.0,11.07,13.68,47.59359,-54.27349
2022-07-13 17:14:00+00:00,216.0,10.17,217.0,11.6,13.68,47.59359,-54.27349
2022-07-13 17:24:00+00:00,213.0,9.98,208.0,11.31,13.68,47.59359,-54.27349
2022-07-13 17:34:00+00:00,213.0,8.78,213.0,9.95,13.68,47.59359,-54.27349
2022-07-13 17:44:00+00:00,211.0,7.99,218.0,9.64,13.68,47.59359,-54.27349
2022-07-13 17:54:00+00:00,205.0,6.75,210.0,7.44,13.68,47.59359,-54.27349
2022-07-13 18:04:00+00:00,193.0,7.09,198.0,8.76,13.68,47.59359,-54.27349
2022-07-13 18:14:00+00:00,195.0,8.71,200.0,10.12,13.6,47.59359,-54.27349
2022-07-13 18:24:00+00:00,196.0,8.05,203.0,9.52,13.6,47.59359,-54.27349
2022-07-13 18:34:00+00:00,202.0,9.73,214.0,11.97,13.6,47.59359,-54.27349
2022-07-13 18:44:00+00:00,209.0,10.15,209.0,12.82,13.6,47.59359,-54.27349
2022-07-13 18:54:00+00:00,211.0,10.35,210.0,13.5,13.6,47.59359,-54.27349
2022-07-13 19:04:00+00:00,215.0,10.5,221.0,12.45,13.6,47.59359,-54.27349
2022-07-13 19:14:01+00:00,216.0,12.41,223.0,13.91,13.68,47.59359,-54.27349
2022-07-13 19:24:01+00:00,218.0,11.67,221.0,13.4,13.68,47.59359,-54.27349
2022-07-13 19:34:01+00:00,219.0,10.99,220.0,12.86,13.68,47.59359,-54.27349
2022-07-13 19:44:01+00:00,218.0,12.27,214.0,14.27,13.68,47.59359,-54.27349
2022-07-13 19:54:01+00:00,219.0,10.97,220.0,12.32,13.68,47.59359,-54.27349
2022-07-13 20:04:01+00:00,217.0,11.16,217.0,12.71,13.68,47.59359,-54.27349
2022-07-13 20:14:01+00:00,219.0,10.36,221.0,11.92,13.6,47.59359,-54.27349
2022-07-13 20:24:01+00:00,220.0,9.78,223.0,11.12,13.6,47.59359,-54.27349
2022-07-13 20:34:01+00:00,226.0,9.76,226.0,11.32,13.6,47.59359,-54.27349
2022-07-13 20:44:01+00:00,222.0,9.22,225.0,10.1,13.6,47.59359,-54.27349
2022-07-13 20:54:01+00:00,218.0,10.48,218.0,11.73,13.6,47.59359,-54.27349
2022-07-13 21:04:01+00:00,213.0,10.28,212.0,11.93,13.6,47.59359,-54.27349
2022-07-13 21:14:00+00:00,212.0,11.48,213.0,12.91,13.37,47.59359,-54.27349
2022-07-13 21:24:00+00:00,211.0,10.21,212.0,10.99,13.37,47.59359,-54.27349
2022-07-13 21:34:00+00:00,209.0,10.91,209.0,13.04,13.37,47.59359,-54.27349
2022-07-13 21:44:00+00:00,208.0,11.99,207.0,13.65,13.37,47.59359,-54.27349
2022-07-13 21:54:00+00:00,212.0,11.58,208.0,12.75,13.37,47.59359,-54.27349
2022-07-13 22:04:00+00:00,215.0,11.38,206.0,13.46,13.37,47.59359,-54.27349
2022-07-13 22:14:00+00:00,214.0,12.84,216.0,14.46,13.21,47.59359,-54.27349
2022-07-13 22:24:00+00:00,213.0,12.81,210.0,14.07,13.21,47.59359,-54.27349
2022-07-13 22:34:00+00:00,214.0,12.13,212.0,13.82,13.21,47.59359,-54.27349
2022-07-13 22:44:00+00:00,216.0,11.5,216.0,13.18,13.21,47.59359,-54.27349
2022-07-13 22:54:00+00:00,217.0,10.83,217.0,12.43,13.21,47.59359,-54.27349
2022-07-13 23:04:00+00:00,217.0,9.82,216.0,11.09,13.21,47.59359,-54.27349
2022-07-13 23:14:00+00:00,215.0,10.07,215.0,11.37,12.65,47.59359,-54.27349
2022-07-13 23:24:00+00:00,215.0,9.11,214.0,10.06,12.65,47.59359,-54.27349
2022-07-13 23:34:00+00:00,217.0,8.92,216.0,10.06,12.65,47.59359,-54.27349
2022-07-13 23:44:00+00:00,218.0,8.35,218.0,9.16,12.65,47.59359,-54.27349
2022-07-13 23:54:00+00:00,217.0,7.86,218.0,9.25,12.65,47.59359,-54.27349
